Date String (YYYY-MM-DD hh:mm:ss) UTC,Instrument flags,Ambient pressure (hPa),Sample flow (lpm),Bypass flow (lpm),Sample temperature (°C),Ambient temperature (°C),ASC tube jacket temperature (°C),LED temperature (°C),Box temperature (°C),Sample RH (%),Span deviation,Mass concentration (μg/m³),Mass concentration (μg/m³),Mass concentration (μg/m³)
DateTimeUTC,F1_M11,P_M11,Q1_M11,Q2_M11,T1_M11,T2_M11,T3_M11,T4_M11,T5_M11,U1_M11,ZSPAN_M11,X2_M11,X0_M11,X1_M11
2022-07-17 17:00:00,,0830.7,5.00,0.00,29.2,27.4,00.0,38.0,31.1,30.9,0000.0,0007.76,0014.11,0006.87
2022-07-17 17:01:00,,0830.8,4.99,0.00,29.2,27.6,00.0,38.0,31.1,30.7,0000.0,0007.75,0013.98,0006.89
2022-07-17 17:02:00,,0830.8,4.99,0.00,29.3,27.8,00.0,38.0,31.2,30.6,0000.0,0007.79,0013.94,0006.91
2022-07-17 17:03:00,,0830.7,5.01,0.00,29.3,28.0,00.0,38.0,31.3,30.8,0000.0,0007.86,0014.47,0006.94
2022-07-17 17:04:00,,0830.8,5.00,0.00,29.3,28.1,00.0,38.0,31.3,30.6,0000.0,0007.88,0014.94,0006.95
2022-07-17 17:05:00,,0830.8,5.01,0.00,29.4,27.6,00.0,38.0,31.3,30.7,0000.0,0007.86,0014.99,0006.95
2022-07-17 17:06:00,,0830.8,5.00,0.00,29.3,27.1,00.0,37.9,31.2,30.6,0000.0,0007.89,0015.05,0006.95
2022-07-17 17:07:00,,0830.7,5.00,0.00,29.3,27.0,00.0,37.9,31.1,30.6,0000.0,0007.94,0014.77,0006.95
2022-07-17 17:08:00,,0830.8,5.00,0.00,29.2,27.1,00.0,37.9,31.0,30.8,0000.0,0007.99,0014.29,0006.96
2022-07-17 17:09:00,,0830.8,5.00,0.00,29.2,27.3,00.0,37.9,31.0,30.5,0000.0,0008.03,0014.10,0006.96
2022-07-17 17:10:00,,0830.8,4.99,0.00,29.2,27.5,00.0,37.9,31.1,30.2,0000.0,0007.97,0013.82,0006.95
2022-07-17 17:11:00,,0830.8,5.01,0.00,29.2,27.7,00.0,38.0,31.1,29.8,0000.0,0007.93,0013.85,0006.94
2022-07-17 17:12:00,,0830.8,5.00,0.00,29.3,27.9,00.0,38.0,31.2,30.7,0000.0,0007.90,0013.98,0006.93
2022-07-17 17:13:00,,0830.8,5.01,0.00,29.3,28.0,00.0,38.0,31.3,30.8,0000.0,0007.90,0014.13,0006.93
2022-07-17 17:14:00,,0830.8,4.99,0.00,29.3,28.0,00.0,38.0,31.3,30.9,0000.0,0007.87,0013.68,0006.92
2022-07-17 17:15:00,,0830.8,5.00,0.00,29.3,27.4,00.0,37.9,31.3,30.7,0000.0,0007.85,0013.33,0006.91
2022-07-17 17:16:00,,0830.8,5.00,0.00,29.3,27.1,00.0,37.9,31.2,30.3,0000.0,0007.79,0013.22,0006.88
2022-07-17 17:17:00,,0830.7,5.00,0.00,29.3,27.1,00.0,37.9,31.1,30.1,0000.0,0007.76,0013.45,0006.86
2022-07-17 17:18:00,,0830.7,5.00,0.00,29.2,27.2,00.0,37.9,31.0,31.4,0000.0,0007.75,0013.48,0006.86
2022-07-17 17:19:00,,0830.7,5.01,0.00,29.2,27.4,00.0,37.9,31.0,31.3,0000.0,0007.73,0013.97,0006.86
2022-07-17 17:20:00,,0830.7,4.99,0.00,29.2,27.6,00.0,37.9,31.1,31.2,0000.0,0007.68,0013.83,0006.86
2022-07-17 17:21:00,,0830.7,4.99,0.00,29.3,27.8,00.0,37.9,31.2,30.6,0000.0,0007.68,0014.05,0006.87
2022-07-17 17:22:00,,0830.8,5.01,0.00,29.3,28.0,00.0,38.0,31.3,30.6,0000.0,0007.67,0013.69,0006.88
2022-07-17 17:23:00,,0830.7,4.98,0.00,29.3,28.0,00.0,37.9,31.3,30.6,0000.0,0007.70,0013.55,0006.89
2022-07-17 17:24:00,,0830.7,4.99,0.00,29.3,27.5,00.0,37.9,31.2,30.3,0000.0,0007.68,0013.41,0006.88
2022-07-17 17:25:00,,0830.7,5.00,0.00,29.3,27.1,00.0,37.9,31.2,30.2,0000.0,0007.61,0013.27,0006.85
2022-07-17 17:26:00,,0830.7,4.99,0.00,29.3,27.1,00.0,37.9,31.1,29.9,0000.0,0007.58,0013.19,0006.83
2022-07-17 17:27:00,,0830.7,5.00,0.00,29.2,27.2,00.0,37.9,31.0,29.9,0000.0,0007.62,0013.40,0006.80
2022-07-17 17:28:00,,0830.7,5.00,0.00,29.2,27.4,00.0,37.9,31.0,30.3,0000.0,0007.62,0013.08,0006.79
2022-07-17 17:29:00,,0830.7,4.99,0.00,29.2,27.6,00.0,37.9,31.1,30.3,0000.0,0007.57,0013.03,0006.75
2022-07-17 17:30:00,,0830.7,5.00,0.00,29.2,27.8,00.0,37.9,31.1,31.2,0000.0,0007.53,0012.62,0006.71
2022-07-17 17:31:00,,0830.7,5.00,0.00,29.3,27.9,00.0,37.9,31.2,31.1,0000.0,0007.53,0012.97,0006.70
2022-07-17 17:32:00,,0830.7,5.01,0.00,29.3,27.9,00.0,37.9,31.3,30.6,0000.0,0007.52,0012.63,0006.68
2022-07-17 17:33:00,,0830.8,5.00,0.00,29.3,27.5,00.0,37.9,31.2,30.1,0000.0,0007.51,0013.17,0006.66
2022-07-17 17:34:00,,0830.8,5.01,0.00,29.3,27.1,00.0,37.8,31.1,30.1,0000.0,0007.46,0013.19,0006.64
2022-07-17 17:35:00,,0830.7,5.00,0.00,29.2,27.1,00.0,37.8,31.0,30.3,0000.0,0007.44,0013.11,0006.61
2022-07-17 17:36:00,,0830.6,4.99,0.00,29.2,27.2,00.0,37.9,31.0,30.6,0000.0,0007.48,0013.17,0006.59
2022-07-17 17:37:00,,0830.6,5.00,0.00,29.2,27.3,00.0,37.9,31.0,30.8,0000.0,0007.48,0013.22,0006.58
2022-07-17 17:38:00,,0830.6,5.00,0.00,29.2,27.5,00.0,37.9,31.0,30.9,0000.0,0007.46,0014.12,0006.59
2022-07-17 17:39:00,,0830.6,5.00,0.00,29.2,27.7,00.0,37.9,31.1,31.0,0000.0,0007.47,0014.62,0006.60
2022-07-17 17:40:00,,0830.6,5.00,0.00,29.2,27.9,00.0,37.9,31.2,31.0,0000.0,0007.49,0014.65,0006.62
2022-07-17 17:41:00,,0830.7,5.01,0.00,29.3,27.9,00.0,37.9,31.2,31.1,0000.0,0007.48,0014.80,0006.62
2022-07-17 17:42:00,,0830.6,4.99,0.00,29.3,27.4,00.0,37.8,31.2,30.9,0000.0,0007.47,0015.50,0006.62
2022-07-17 17:43:00,,0830.6,5.01,0.00,29.2,27.0,00.0,37.8,31.1,30.9,0000.0,0007.48,0016.44,0006.62
2022-07-17 17:44:00,,0830.7,5.00,0.00,29.2,27.0,00.0,37.8,31.0,30.7,0000.0,0007.48,0016.08,0006.59
2022-07-17 17:45:00,,0830.6,5.00,0.00,29.2,27.1,00.0,37.8,30.9,30.6,0000.0,0007.48,0016.16,0006.57
2022-07-17 17:46:00,,0830.6,5.00,0.00,29.1,27.3,00.0,37.8,31.0,30.5,0000.0,0007.48,0016.26,0006.56
2022-07-17 17:47:00,,0830.6,4.99,0.00,29.1,27.5,00.0,37.9,31.0,30.3,0000.0,0007.44,0016.21,0006.55
2022-07-17 17:48:00,,0830.6,5.01,0.00,29.2,27.7,00.0,37.9,31.1,30.4,0000.0,0007.44,0016.05,0006.55
2022-07-17 17:49:00,,0830.6,5.00,0.00,29.2,27.9,00.0,37.9,31.2,29.9,0000.0,0007.42,0015.04,0006.53
2022-07-17 17:50:00,,0830.6,5.00,0.00,29.2,27.9,00.0,37.9,31.2,29.4,0000.0,0007.37,0015.29,0006.51
2022-07-17 17:51:00,,0830.6,5.01,0.00,29.2,27.5,00.0,37.8,31.2,29.6,0000.0,0007.33,0015.50,0006.47
2022-07-17 17:52:00,,0830.6,4.99,0.00,29.2,27.1,00.0,37.8,31.1,29.8,0000.0,0007.35,0014.93,0006.45
2022-07-17 17:53:00,,0830.6,5.00,0.00,29.2,27.0,00.0,37.8,31.0,29.5,0000.0,0007.34,0014.25,0006.42
2022-07-17 17:54:00,,0830.6,5.00,0.00,29.1,27.1,00.0,37.8,31.0,30.0,0000.0,0007.35,0013.44,0006.38
2022-07-17 17:55:00,,0830.6,5.00,0.00,29.1,27.3,00.0,37.8,31.0,30.6,0000.0,0007.35,0013.58,0006.38
2022-07-17 17:56:00,,0830.6,4.99,0.00,29.1,27.5,00.0,37.8,31.0,31.1,0000.0,0007.38,0013.68,0006.38
2022-07-17 17:57:00,,0830.6,5.00,0.00,29.2,27.7,00.0,37.9,31.1,31.3,0000.0,0007.35,0013.69,0006.37
2022-07-17 17:58:00,,0830.6,4.99,0.00,29.2,27.9,00.0,37.9,31.1,30.8,0000.0,0007.35,0014.10,0006.37
2022-07-17 17:59:00,,0830.6,5.00,0.00,29.2,28.0,00.0,37.9,31.2,30.6,0000.0,0007.36,0014.37,0006.37
